Theta_e
316 315 316 314 312 313 311 308 307 306 306 305 305 306 306 306 307 305 306 307 307 306 306 306 307 307 309 307 308 307 306 305 304 302 303 303 301 300 300 298 298 299
316 317 317 315 314 313 311 309 308 307 307 306 306 306 305 308 306 307 307 307 307 305 306 306 307 307 307 307 306 306 305 305 305 307 303 302 301 301 300 299 299 298
315 316 315 314 313 312 311 309 309 307 307 306 306 306 308 308 307 306 307 307 306 306 306 306 306 306 306 306 305 306 305 304 304 302 303 301 301 301 300 300 299 299
316 316 315 315 314 313 312 310 308 307 306 307 307 307 308 310 307 307 307 312 306 306 306 306 306 306 306 306 305 304 304 304 304 304 303 302 303 302 301 301 302 301
318 317 315 314 314 314 312 311 309 308 308 308 307 307 309 309 306 306 307 307 306 305 306 306 306 305 305 305 304 304 304 305 305 305 303 303 302 302 302 303 301 300
318 318 316 314 314 314 312 312 311 309 308 307 309 310 308 309 306 306 307 305 306 306 306 306 305 305 305 305 304 305 306 305 305 304 304 303 303 302 304 301 301 301
315 316 316 314 313 314 313 312 312 311 310 310 309 309 309 309 307 306 306 306 306 307 306 306 305 305 305 304 305 304 305 305 304 304 304 302 304 302 303 301 301 300
315 316 316 315 313 313 313 313 312 312 311 310 309 310 311 310 308 307 307 307 306 306 306 306 307 306 305 305 305 305 304 305 305 304 303 302 303 302 302 303 301 300
315 316 315 315 313 312 312 312 312 312 312 311 310 309 311 311 309 309 309 307 307 307 306 306 306 306 304 305 304 304 304 303 305 304 303 302 302 302 302 302 300 301
314 315 316 315 314 313 313 313 315 314 314 312 310 309 310 310 309 309 308 307 307 307 307 307 307 307 306 305 306 305 305 305 303 303 303 303 303 302 302 302 301 300
314 314 315 315 314 314 313 313 314 314 315 314 312 312 313 313 311 310 309 308 309 308 308 307 307 307 307 306 305 305 305 305 304 303 303 303 303 303 304 302 302 301
313 314 314 315 314 313 313 314 315 314 313 312 313 313 313 313 312 312 312 311 310 309 309 309 308 308 308 307 306 306 307 305 305 304 303 303 303 303 303 302 302 301
313 313 314 313 313 313 314 315 315 315 315 313 314 314 314 314 313 313 313 312 312 311 310 310 310 309 308 306 307 306 306 305 304 304 304 303 303 304 303 302 302 301
311 312 312 313 314 314 314 314 314 314 314 313 314 315 314 314 315 314 314 315 315 313 313 312 311 310 308 308 308 307 306 305 305 304 304 303 303 302 302 303 302 302
312 313 314 314 314 314 314 314 314 314 314 313 313 314 315 315 315 316 315 315 314 314 313 311 310 310 311 310 309 308 307 307 307 307 306 305 304 303 302 302 302 301
314 314 315 315 314 314 314 315 315 315 314 314 314 315 314 315 315 315 315 314 314 312 310 309 309 309 309 306 305 307 307 308 308 306 306 305 305 304 303 302 302 302
312 313 314 314 314 314 313 314 314 314 313 313 312 312 313 313 314 313 312 312 311 309 308 309 308 307 295 299 301 300 303 305 307 307 306 306 305 304 303 303 302 301
310 310 311 312 312 311 312 312 312 313 313 313 311 311 312 312 311 311 311 310 310 308 306 305 305 296 293 296 296 297 300 305 306 307 307 306 306 305 304 303 302 299
306 309 308 308 308 309 312 311 311 310 311 311 311 311 311 310 311 310 310 309 309 307 306 301 299 296 292 293 294 294 295 298 304 307 308 307 306 305 304 302 300 300
304 305 305 305 305 305 308 309 308 309 308 310 310 310 310 310 310 309 309 308 308 304 298 294 294 295 293 295 295 295 295 296 300 302 303 304 304 304 302 301 301 299
300 300 302 301 300 300 301 303 304 300 302 302 304 306 307 308 307 306 306 305 302 297 294 292 294 293 293 293 293 293 295 296 296 298 297 296 297 299 299 299 298 299
298 297 297 296 297 297 298 298 297 299 299 298 298 297 297 298 298 300 300 297 295 293 293 292 292 293 293 293 293 293 295 297 296 296 295 296 296 297 297 298 298 299
297 297 296 296 296 296 296 297 296 294 294 294 295 294 296 296 296 295 298 296 293 291 292 291 292 292 292 292 292 293 294 295 294 295 295 295 295 296 296 296 296 297
296 296 297 295 295 295 296 294 294 294 294 294 296 295 296 295 294 296 294 294 294 291 292 293 291 292 293 292 293 293 295 294 293 294 292 293 292 291 291 292 297 303
296 296 296 296 296 296 295 295 295 295 294 293 295 295 294 293 296 296 293 291 291 291 297 291 289 292 292 292 292 293 294 292 292 291 291 289 290 290 289 289 290 294
296 298 298 297 297 296 296 297 296 295 293 294 292 294 294 294 293 294 292 290 289 288 289 288 289 289 290 292 292 292 293 293 291 291 290 288 290 291 289 288 289 289
Wind_Speed
5 7 6 2 6 6 7 6 4 6 5 5 6 5 6 4 4 4 5 5 5 6 5 5 5 5 5 5 5 6 6 6 5 4 6 6 5 6 6 5 4 5
3 11 9 5 4 4 5 6 6 6 6 5 4 4 4 5 4 6 6 6 5 6 5 5 5 5 5 5 5 7 6 6 5 3 6 6 4 6 6 5 5 3
1 3 9 7 8 7 7 5 5 5 5 4 2 2 4 4 5 5 6 7 7 6 6 6 5 5 5 5 5 5 6 5 5 4 5 5 4 5 4 4 4 4
0 3 8 11 7 8 7 6 4 4 3 4 4 4 3 3 4 5 6 6 7 6 6 6 7 6 6 6 6 6 6 6 5 5 5 3 4 5 4 3 3 3
9 8 8 7 10 7 6 8 7 5 6 6 4 3 3 2 2 4 4 5 5 5 6 6 6 6 5 6 6 6 5 6 5 5 7 5 4 5 4 4 4 4
11 10 9 8 9 9 7 8 8 6 5 4 6 4 4 4 3 3 3 4 4 5 5 5 6 5 6 6 5 6 6 6 5 5 6 6 4 3 4 5 5 4
13 10 8 7 7 9 9 8 8 8 7 6 4 5 4 4 4 4 4 4 4 4 5 4 5 5 4 5 5 5 5 6 5 5 6 5 6 5 3 5 5 5
9 9 8 6 6 8 8 7 7 9 7 6 6 6 6 6 5 4 4 4 4 4 4 4 5 5 5 5 5 6 5 5 7 6 5 5 5 6 5 4 5 5
10 8 5 3 4 4 5 1 2 3 7 9 8 6 5 6 6 5 4 4 4 4 4 4 4 4 4 4 4 4 4 4 4 5 6 6 5 5 6 4 4 5
5 4 11 8 3 6 5 5 6 3 1 1 2 3 2 3 3 1 2 4 5 4 5 5 5 5 5 5 6 6 5 6 4 4 4 5 6 6 5 5 6 5
5 9 11 12 9 7 6 7 6 3 5 6 4 4 4 5 3 0 3 4 6 7 6 6 6 6 6 5 4 4 5 5 5 5 4 4 5 6 7 7 6 6
5 8 10 12 11 9 9 10 9 7 6 5 7 7 6 6 7 6 5 7 7 7 6 7 6 6 6 5 4 3 3 3 4 5 5 5 5 4 5 6 7 7
6 6 7 7 7 8 8 8 10 10 9 7 6 6 6 5 6 5 3 4 10 11 8 6 5 4 4 4 4 4 4 4 4 4 4 4 4 4 5 5 6 6
6 6 7 5 4 6 8 6 4 6 8 6 7 9 5 3 4 2 2 3 9 11 10 4 3 4 3 4 4 4 3 4 4 4 4 4 4 4 4 5 6 7
9 8 7 7 6 8 9 9 8 8 7 7 6 3 6 6 6 6 5 9 12 11 8 5 3 2 1 1 1 1 2 4 5 5 6 6 5 5 5 6 5 5
9 10 10 10 10 7 7 7 9 9 9 8 8 10 7 8 9 8 10 11 10 9 5 4 2 0 2 3 3 1 2 4 4 4 4 5 5 6 6 6 7 6
11 10 10 10 11 11 11 9 7 6 5 5 5 5 5 3 4 7 8 6 5 5 4 4 1 3 4 4 1 4 4 4 5 5 5 5 6 6 7 8 7 5
8 9 9 9 7 7 8 8 7 8 8 8 8 8 7 8 8 9 6 4 5 4 4 1 1 2 3 1 3 6 6 4 4 5 5 5 6 7 7 6 5 4
3 7 7 6 5 6 6 6 7 7 7 8 10 10 6 5 8 8 7 5 5 5 1 1 0 3 4 4 4 3 2 4 4 4 5 6 5 6 6 5 4 6
2 1 0 0 1 4 5 6 6 7 7 7 6 6 7 9 9 8 6 6 7 4 3 2 1 3 3 2 4 5 4 1 1 2 3 4 4 4 4 5 5 4
4 5 7 6 5 5 5 6 6 5 4 4 5 8 9 10 9 8 7 5 4 6 5 3 1 2 2 4 6 7 6 5 3 3 3 3 2 2 3 4 3 5
6 5 5 5 6 5 7 6 6 6 7 5 5 5 5 6 5 7 8 6 5 5 4 3 1 3 2 6 8 8 8 5 4 4 4 4 4 3 3 3 4 4
1 5 4 5 5 6 5 6 6 5 4 3 7 5 5 4 4 3 4 7 5 3 4 2 0 2 1 6 7 9 7 5 4 5 5 6 6 5 5 4 2 3
4 2 5 4 5 5 5 4 4 3 3 2 6 5 5 4 4 5 3 2 2 3 4 5 3 1 1 3 7 7 7 5 4 6 5 5 5 5 5 5 6 8
1 2 3 3 4 4 5 4 4 4 3 4 5 5 4 4 4 6 5 4 3 2 4 2 2 3 3 2 6 7 6 4 6 5 5 3 5 5 5 6 6 7
1 1 1 3 3 4 3 1 2 4 4 5 4 5 6 5 5 6 6 4 4 4 4 3 3 2 2 3 5 6 7 5 4 6 4 3 3 5 6 5 5 6
Wind_Direction
135 130 120 217 181 179 170 168 182 169 177 170 167 179 163 162 149 130 129 120 123 125 131 125 123 116 114 109 107 103 103 108 107 110 101 105 109 112 107 107 94 111
199 143 163 223 216 194 191 177 174 178 178 182 191 175 177 148 166 141 139 136 133 138 137 132 128 129 126 120 120 114 112 115 118 133 111 105 118 105 113 116 117 117
32 168 168 190 194 194 192 187 173 179 175 184 186 208 184 171 159 156 146 144 142 144 144 141 136 138 135 131 129 121 123 120 120 120 112 122 123 115 130 124 111 119
125 217 223 190 199 199 189 170 177 177 160 164 197 202 208 199 168 162 159 152 145 150 150 149 151 152 147 147 139 137 143 139 145 134 115 108 119 121 134 119 114 103
189 206 232 219 190 199 188 174 178 182 183 190 173 186 200 221 202 177 168 162 150 150 152 156 155 157 153 151 147 143 151 144 151 139 133 137 147 131 152 127 127 121
194 198 209 211 203 180 195 190 175 178 188 174 195 179 193 187 199 201 192 168 168 152 155 154 161 165 161 156 151 153 158 151 167 145 142 149 161 146 142 136 133 137
184 188 209 212 215 190 191 198 176 171 184 192 162 195 177 187 197 203 198 192 172 170 165 166 165 172 177 159 156 159 169 165 166 163 153 162 152 159 153 149 145 147
191 188 193 197 208 203 193 202 189 173 181 165 183 197 181 187 194 195 197 196 188 191 186 181 178 178 183 173 169 170 177 169 170 170 160 163 158 163 173 171 153 153
195 192 165 173 206 213 187 135 328 258 175 175 188 191 193 187 188 189 191 192 198 202 195 197 191 188 188 182 179 176 177 197 190 177 165 163 172 178 178 164 153 167
192 116 95 104 152 187 154 128 129 119 42 67 88 56 36 17 12 321 208 193 200 207 207 203 199 193 189 198 187 182 182 188 197 206 196 182 179 181 176 171 177 174
141 141 155 166 168 152 128 103 86 84 122 115 96 96 112 153 165 276 268 225 208 209 212 212 209 200 199 204 207 194 190 185 191 196 204 208 201 185 181 179 179 185
142 163 165 172 163 144 128 118 111 101 98 95 100 89 76 38 36 30 5 334 291 244 220 216 211 209 208 201 190 185 194 195 198 203 206 208 216 211 189 185 183 194
166 170 165 149 123 133 133 129 128 136 130 124 124 101 89 91 74 63 42 341 316 301 263 235 227 225 218 203 200 192 192 195 201 215 229 227 220 217 214 197 193 189
62 46 60 65 97 107 96 90 97 108 111 116 127 136 126 111 106 112 161 196 243 258 267 271 260 250 229 216 211 208 198 205 202 211 228 247 248 239 231 221 208 198
118 104 111 125 124 106 106 109 109 117 128 130 108 124 156 162 178 181 205 224 234 239 247 257 231 226 223 217 235 258 233 227 215 213 215 222 225 226 224 230 229 213
106 119 126 131 126 124 106 135 156 176 172 166 164 172 181 173 184 198 210 225 232 238 245 266 264 237 9 336 323 302 277 267 267 249 237 236 237 237 234 227 227 218
144 153 156 156 151 147 176 194 160 137 119 116 115 143 162 177 230 222 227 243 251 255 265 271 345 77 77 104 219 241 231 239 239 244 235 233 230 227 230 230 233 229
148 159 170 167 159 166 176 178 148 147 151 148 153 176 200 188 212 223 212 221 248 246 236 266 73 13 6 268 218 226 218 225 236 240 238 234 231 229 232 227 224 210
192 175 177 175 174 170 166 157 157 157 161 158 176 193 189 178 217 226 229 221 222 233 225 40 349 312 309 291 269 288 272 227 240 239 244 246 242 238 234 214 177 184
266 315 20 144 195 161 158 160 160 177 182 183 173 167 171 195 213 217 221 210 208 183 144 196 228 306 306 2 40 40 33 38 239 255 253 258 254 242 223 195 191 168
171 179 180 173 161 144 142 150 160 158 165 169 164 176 180 191 189 190 198 192 167 157 158 152 211 266 191 96 74 65 58 43 23 31 39 42 49 113 128 137 129 131
140 139 136 132 129 120 116 124 136 145 143 144 124 119 125 135 139 141 146 144 147 140 122 111 31 22 66 92 83 73 68 57 51 46 41 36 30 35 71 108 132 135
19 110 102 106 100 95 104 122 117 109 122 128 93 98 102 108 144 130 144 136 132 114 111 116 36 354 355 108 109 105 84 73 73 62 49 49 37 32 31 35 65 115
344 348 115 112 107 112 121 122 111 98 103 107 106 102 89 121 121 90 62 60 109 149 147 151 191 339 317 141 118 116 117 110 100 91 70 65 58 40 33 34 29 63
316 355 326 135 129 157 147 144 149 133 122 84 102 99 104 93 86 88 65 46 49 71 41 45 83 38 25 73 113 115 109 109 105 98 89 65 84 67 48 50 45 43
360 302 322 295 198 177 189 157 136 122 113 101 82 99 103 88 91 93 93 69 58 61 58 69 92 45 34 75 104 103 110 111 107 109 115 99 76 95 83 54 65 73